Waarnemingen

Advertentie
Mijn weer
La Rochelle/Ile de Re, Frankrijk (7316): temperatuur & dauwpunt: 17.01.2018 05:00:00 - 23.01.2018 05:00:00 (CET)La Rochelle/Ile de Re, Frankrijk (7316): windsnelheid & windstoten: 17.01.2018 05:00:00 - 23.01.2018 05:00:00 (CET)La Rochelle/Ile de Re, Frankrijk (7316): windrichting: 17.01.2018 05:00:00 - 23.01.2018 05:00:00 (CET)La Rochelle/Ile de Re, Frankrijk (7316): luchtdruk: 17.01.2018 05:00:00 - 23.01.2018 05:00:00 (CET)La Rochelle/Ile de Re, Frankrijk (7316): zicht: 17.01.2018 05:00:00 - 23.01.2018 05:00:00 (CET)La Rochelle/Ile de Re, Frankrijk (7316): Zonneschijnduur: 17.01.2018 05:00:00 - 23.01.2018 05:00:00 (CET)La Rochelle/Ile de Re, Frankrijk (7316): neerslag: 17.01.2018 05:00:00 - 23.01.2018 05:00:00 (CET)
Datum & Tijd tt [°C] td [°C] ff [km/u] ff [kn] fx [km/u] fx [kn] dd ppp [hPa] vv [km] sd [min] rr [mm]
23.01.2018 05:00:00 9,9 9,4 13 7 19 10 Z 1026,3 11 0 0,0
23.01.2018 04:00:00 9,6 9,1 11 6 17 9 Z 1026,6 8 0 0,2
23.01.2018 03:00:00 9,8 9,3 9 5 15 8 ZZW 1027,0 10 0 0,0
23.01.2018 02:00:00 10,0 9,5 8 5 13 7 ZZW 1026,9 7 0 0,0
23.01.2018 01:00:00 9,1 8,5 7 4 9 5 ZZW 1027,3 4,3 0 0,0
23.01.2018 00:00:00 9,0 8,2 6 3 12 7 ZZW 1027,3 6 0 0,0
22.01.2018 23:00:00 9,3 8,5 8 4 12 6 ZW 1027,2 10 0 0,0
22.01.2018 22:00:00 9,0 8,1 9 5 14 8 W 1027,2 10 0 0,0
22.01.2018 21:00:00 9,3 8,2 11 6 20 11 W 1026,7 11 0 0,0
22.01.2018 20:00:00 9,5 8,1 15 8 24 13 W 1026,3 13 0 0,0
22.01.2018 19:00:00 10,0 8,4 19 11 29 16 WNW 1025,5 14 0 0,0
22.01.2018 18:00:00 10,2 8,6 23 12 36 19 WNW 1024,8 12 29 0,0
22.01.2018 17:00:00 11,0 8,7 27 14 41 22 WNW 1024,0 13 60 0,0
22.01.2018 16:00:00 11,7 8,5 36 19 53 29 WNW 1022,9 17 60 0,0
22.01.2018 15:00:00 12,2 9,2 40 21 64 35 WNW 1021,9 14 60 0,0
22.01.2018 14:00:00 12,2 9,2 45 25 64 35 WNW 1021,1 16 52 0,0
22.01.2018 13:00:00 12,4 9,8 43 23 63 34 WNW 1020,7 11 20 0,0
22.01.2018 12:00:00 13,3 11,5 39 21 61 33 W 1020,6 3,1 22 0,0
22.01.2018 11:00:00 12,4 11,8 35 19 59 32 W 1020,5 16 0 0,8
22.01.2018 10:00:00 12,2 11,7 35 19 63 34 WZW 1019,8 3,7 0 0,0
22.01.2018 09:00:00 11,9 11,3 30 16 46 25 WZW 1019,8 2,8 0 0,2
22.01.2018 08:00:00 11,8 11,0 26 14 45 24 ZW 1020,5 4,6 0 0,2
22.01.2018 07:00:00 11,9 10,8 26 14 49 26 WZW 1020,8 3,6 0 0,0
22.01.2018 06:00:00 11,8 11,0 29 16 48 26 WZW 1021,2 9 0 0,0
22.01.2018 05:00:00 12,2 10,9 29 16 48 26 W 1021,6 15 0 0,0
22.01.2018 04:00:00 12,0 11,1 28 15 44 24 WZW 1021,5 10 0 0,0
22.01.2018 03:00:00 11,9 11,0 28 15 48 26 WZW 1021,7 5 0 0,0
22.01.2018 02:00:00 12,0 10,9 24 13 45 24 WZW 1022,1 11 0 0,0
22.01.2018 01:00:00 12,0 10,9 26 14 45 24 WZW 1022,3 16 0 0,0
22.01.2018 00:00:00 11,8 10,9 23 12 44 24 WZW 1022,3 14 0 0,0
21.01.2018 23:00:00 11,8 11,2 27 14 42 23 WZW 1022,5 10 0 0,2
21.01.2018 22:00:00 11,8 11,0 27 15 41 22 WZW 1022,8 6 0 0,0
21.01.2018 21:00:00 11,8 10,7 23 13 43 23 W 1022,9 10 0 0,2
21.01.2018 20:00:00 11,8 10,9 21 11 56 30 W 1022,6 13 0 0,0
21.01.2018 19:00:00 11,8 10,9 25 13 44 24 W 1022,7 8 0 0,0
21.01.2018 18:00:00 11,8 11,0 27 15 46 25 W 1022,6 8 6 0,0
21.01.2018 17:00:00 11,9 11,0 30 16 45 24 W 1022,3 9 0 0,0
21.01.2018 16:00:00 11,9 11,1 30 16 48 26 W 1022,4 50 0 0,0
21.01.2018 15:00:00 12,0 11,2 31 17 49 26 W 1022,2 4,6 0 0,0
21.01.2018 14:00:00 12,1 11,5 34 18 49 27 W 1022,3 10 0 0,0
21.01.2018 13:00:00 12,0 11,4 26 14 42 23 W 1022,5 4,6 0 0,0
21.01.2018 12:00:00 11,9 11,4 27 15 45 24 W 1022,8 5 0 0,0
21.01.2018 11:00:00 11,9 11,4 31 17 46 25 W 1021,9 20 0 0,0
21.01.2018 10:00:00 11,6 11,1 31 17 49 26 WNW 1021,5 16 0 0,0
21.01.2018 09:00:00 11,6 11,1 36 19 52 28 WNW 1020,8 6 0 0,0
21.01.2018 08:00:00 11,7 11,2 33 18 49 26 WNW 1020,1 12 0 0,2
21.01.2018 07:00:00 11,7 11,2 32 17 46 25 W 1019,8 6 0 0,0
21.01.2018 06:00:00 11,8 11,3 35 19 48 26 W 1019,4 6 0 1,2
21.01.2018 05:00:00 11,9 11,4 34 18 49 26 W 1019,3 8 0 0,2
21.01.2018 04:00:00 11,8 11,3 35 19 48 26 W 1019,1 6 0 1,0
21.01.2018 03:00:00 11,8 11,2 32 18 51 28 W 1019,0 4,1 0 0,0
21.01.2018 02:00:00 11,8 10,9 38 21 60 33 WNW 1018,2 19 0 0,0
21.01.2018 01:00:00 11,6 10,8 42 23 63 34 WNW 1018,0 13 0 0,0
21.01.2018 00:00:00 11,8 11,2 39 21 68 37 W 1017,0 5 0 0,2
20.01.2018 23:00:00 12,0 11,4 46 25 64 35 W 1016,4 7 0 0,2
20.01.2018 22:00:00 12,2 11,3 43 23 66 35 W 1015,7 6 0 0,0
20.01.2018 21:00:00 12,3 11,5 47 25 64 35 W 1015,0 11 0 0,0
20.01.2018 20:00:00 12,2 11,4 46 25 69 37 W 1014,4 7 0 0,0
20.01.2018 19:00:00 12,2 11,4 45 24 66 36 W 1013,6 10 0 0,0
20.01.2018 18:00:00 12,2 11,3 48 26 74 40 W 1013,1 7 0 0,0
20.01.2018 17:00:00 12,5 11,4 49 27 76 41 W 1012,4 14 0 0,0
20.01.2018 16:00:00 12,5 11,7 51 27 81 44 W 1011,8 8 0 0,2
20.01.2018 15:00:00 12,5 11,7 51 28 78 42 W 1011,2 8 0 0,0
20.01.2018 14:00:00 12,6 11,7 53 29 81 44 W 1011,1 11 0 0,0
20.01.2018 13:00:00 12,5 11,7 52 28 80 43 W 1011,1 9 0 0,4
20.01.2018 12:00:00 12,4 11,6 50 27 77 42 W 1011,2 6 0 0,0
20.01.2018 11:00:00 12,2 11,4 49 26 80 43 W 1011,0 4,8 0 0,2
20.01.2018 10:00:00 11,9 11,0 46 25 71 38 W 1010,7 6 0 1,2
20.01.2018 09:00:00 11,4 10,3 45 24 79 42 WZW 1010,8 5 0 1,6
20.01.2018 08:00:00 10,9 10,0 39 21 68 37 WZW 1011,1 3,9 0 3,4
20.01.2018 07:00:00 10,2 9,3 26 14 55 30 ZW 1012,9 3,5 0 3,5
20.01.2018 06:00:00 10,0 8,8 26 14 46 25 ZW 1014,8 7 0 2,8
20.01.2018 05:00:00 10,3 8,6 19 11 45 25 ZW 1016,2 7 0 0,6
20.01.2018 04:00:00 10,6 7,7 29 16 46 25 ZW 1017,9 16 0 0,0
20.01.2018 03:00:00 10,0 6,9 27 14 39 21 ZW 1018,9 17 0 0,0
20.01.2018 02:00:00 9,7 6,2 17 9 32 17 ZW 1020,1 39 0 0,0
20.01.2018 01:00:00 9,0 5,6 14 8 22 12 WZW 1020,9 40 0 0,0
20.01.2018 00:00:00 8,4 5,3 11 6 21 11 W 1021,2 38 0 0,0
19.01.2018 23:00:00 8,3 5,0 18 10 27 15 W 1021,5 49 0 0,0
19.01.2018 22:00:00 8,5 5,8 12 7 20 11 W 1021,4 37 0 0,0
19.01.2018 21:00:00 8,0 5,1 12 7 21 11 W 1021,0 47 0 0,0
19.01.2018 20:00:00 7,6 4,2 18 10 30 16 W 1020,6 60 0 0,0
19.01.2018 19:00:00 8,2 4,4 20 11 35 19 W 1020,4 60 0 0,0
19.01.2018 18:00:00 8,9 6,2 21 12 31 17 WNW 1020,2 58 0 0,0
19.01.2018 17:00:00 9,2 5,4 22 12 31 17 WNW 1019,7 49 43 0,0
19.01.2018 16:00:00 9,9 7,5 18 10 27 15 WNW 1019,1 46 42 0,0
19.01.2018 15:00:00 10,3 7,2 21 11 30 16 WNW 1018,7 23 53 0,2
19.01.2018 14:00:00 9,0 7,1 24 13 41 22 WNW 1019,3 20 22 1,2
19.01.2018 13:00:00 10,9 7,4 18 10 25 13 W 1018,9 20 24 0,0
19.01.2018 12:00:00 10,0 6,5 15 8 36 19 W 1019,3 53 7 0,0
19.01.2018 11:00:00 10,1 6,6 16 9 29 16 W 1019,0 10 30 0,0
19.01.2018 10:00:00 9,5 7,1 9 5 34 19 WZW 1018,7 10 52 0,0
19.01.2018 09:00:00 7,6 5,9 8 4 12 7 WZW 1018,6 17 0 0,0
19.01.2018 08:00:00 7,5 5,6 9 5 13 7 WZW 1018,3 10 0 0,0
19.01.2018 07:00:00 7,5 5,6 11 6 23 13 WNW 1018,1 10 0 0,0
19.01.2018 06:00:00 8,3 6,6 11 6 15 8 WNW 1017,9 10 0 0,0
19.01.2018 05:00:00 8,1 5,6 13 7 24 13 NW 1017,7 10 0 0,2
19.01.2018 04:00:00 9,1 7,7 15 8 29 15 NW 1017,9 10 0 0,0
19.01.2018 03:00:00 9,0 7,3 21 11 39 21 WNW 1017,7 10 0 0,2
19.01.2018 02:00:00 10,2 7,8 16 9 29 16 W 1017,6 10 0 0,0
19.01.2018 01:00:00 9,5 7,1 13 7 21 11 W 1017,7 10 0 0,0
19.01.2018 00:00:00 9,4 7,3 15 8 25 13 W 1017,7 10 0 0,0
18.01.2018 23:00:00 9,6 7,5 18 10 42 23 WNW 1017,5 10 0 0,0
18.01.2018 22:00:00 10,4 7,8 29 16 44 24 W 1017,0 10 0 0,0
18.01.2018 21:00:00 11,0 9,9 26 14 36 20 W 1016,7 10 0 0,0
18.01.2018 20:00:00 10,5 9,9 26 14 51 28 WNW 1016,6 7 0 0,4
18.01.2018 19:00:00 11,8 11,2 26 14 53 29 WZW 1015,9 6 0 0,2
18.01.2018 18:00:00 11,9 11,1 29 16 59 32 W 1016,1 10 0 0,0
18.01.2018 17:00:00 11,8 11,2 31 17 60 32 WZW 1015,8 4,3 0 0,0
18.01.2018 16:00:00 11,8 10,9 36 19 59 32 WZW 1015,5 3,7 5 0,2
18.01.2018 15:00:00 12,0 10,6 37 20 62 34 WZW 1015,9 5 0 0,0
18.01.2018 14:00:00 12,1 10,5 35 19 56 30 WZW 1016,5 9 0 0,0
18.01.2018 13:00:00 11,8 9,9 26 14 48 26 WZW 1017,2 14 0 0,0
18.01.2018 12:00:00 11,9 10,0 30 16 50 27 WZW 1017,8 15 0 0,0
18.01.2018 11:00:00 11,7 9,6 29 16 46 25 WZW 1018,1 10 5 0,0
18.01.2018 10:00:00 11,4 9,5 27 14 50 27 WZW 1018,2 16 0 0,0
18.01.2018 09:00:00 11,2 9,3 28 15 45 24 WZW 1018,2 10 0 0,0
18.01.2018 08:00:00 11,1 9,2 28 15 54 29 WZW 1018,1 10 0 0,0
18.01.2018 07:00:00 10,8 9,1 29 16 48 26 WZW 1018,4 10 0 0,0
18.01.2018 06:00:00 10,7 8,8 31 17 55 30 WZW 1019,0 10 0 0,0
18.01.2018 05:00:00 10,8 8,2 32 17 54 29 WZW 1019,3 14 0 0,0
18.01.2018 04:00:00 10,6 7,8 34 18 59 32 WZW 1020,0 10 0 0,0
18.01.2018 03:00:00 10,6 7,3 28 15 54 29 W 1020,4 17 0 0,0
18.01.2018 02:00:00 10,0 7,9 29 16 52 28 W 1021,0 10 0 0,2
18.01.2018 01:00:00 10,6 7,1 24 13 39 21 WZW 1021,5 10 0 0,0
18.01.2018 00:00:00 9,8 6,7 26 14 40 22 WZW 1022,1 10 0 0,0
17.01.2018 23:00:00 10,1 6,8 23 12 35 19 WZW 1022,6 14 0 0,0
17.01.2018 22:00:00 10,1 7,0 16 9 33 18 WZW 1022,8 10 0 0,0
17.01.2018 21:00:00 9,1 6,0 15 8 28 15 WZW 1023,1 18 0 0,0
17.01.2018 20:00:00 8,7 6,5 15 8 22 12 W 1023,5 10 0 0,0
17.01.2018 19:00:00 8,1 6,1 15 8 44 24 W 1023,7 10 0 0,0
17.01.2018 18:00:00 8,8 5,7 21 11 45 24 W 1023,8 10 0 0,4
17.01.2018 17:00:00 9,6 4,8 29 16 42 23 W 1023,8 10 50 0,0
17.01.2018 16:00:00 10,6 5,1 29 16 45 24 WNW 1023,5 10 60 0,0
17.01.2018 15:00:00 11,1 6,0 26 14 36 19 WNW 1023,2 10 24 0,0
17.01.2018 14:00:00 10,5 5,5 22 12 39 21 WNW 1023,8 10 54 0,0
17.01.2018 13:00:00 10,3 5,1 29 16 42 23 WNW 1023,8 10 43 0,0
17.01.2018 12:00:00 9,7 4,7 30 16 53 28 NW 1023,7 19 60 0,0
17.01.2018 11:00:00 9,4 4,6 32 17 55 30 WNW 1022,8 18 53 0,0
17.01.2018 10:00:00 8,4 4,2 38 21 80 43 NW 1021,9 18 19 0,0
17.01.2018 09:00:00 9,0 4,8 37 20 57 31 WNW 1020,4 17 0 0,0
17.01.2018 08:00:00 7,7 4,1 35 19 76 41 NW 1019,6 10 0 0,0
17.01.2018 07:00:00 7,8 4,7 42 23 80 43 W 1018,6 10 0 0,2
17.01.2018 06:00:00 8,7 5,1 34 18 60 32 WNW 1017,8 10 0 0,0
17.01.2018 05:00:00 6,7 3,8 50 27 82 44 WNW 1017,4 6 0 1,0

tt = temperatuur
td = dauwpunt
ff = windsnelheid
fx = windstoten
dd = windrichting
ppp = luchtdruk
vv = zicht
sd = Zonneschijnduur
rr = neerslag

Weerstations in de omgeving